Showing default

KUIPER-00451, 68945

Orbit data source: Space-Track

KUIPER-00451, 68945 is a payload satellite owned by Kuiper Systems (US) in LEO that was launched on Thu, 30 Apr 2026 UTC via an ARIANE 64 launch vehicle from the French Guiana (FRGUI). Payload-class satellites include a variety of spacecraft equipped with specific instruments for various scientific and technological missions. These include communications satellites like Starlink; space stations such as the ISS; scientific satellites like the Hubble; Earth observation satellites from companies like Planet Labs, Umbra, and HawkEye 360; GPS; miniature CubeSats for education and research; and military/defense satellites.

Loading next visibility...
Identifier
68945, 2026-098AC
Orbit
LEO
Country
Flag of USUS
Related business
Manufacturer
Kuiper Systems
Mission
Operational Commercial Communications
Bus & Motor
KUIPER, Unknown motor
Mass
~490 kg wet, ~490 kg dry
Launch date (UTC)
2026-04-30 (3 months ago)
Launch vehicle
ARIANE 64
Launch site
French Guiana (FRGUI)
Object type
Payload
Rocket body
Debris
Shape & HBR
Box + 2 Pan, 3.4 m
Radar Cross Section
2.326 m², Large (>1 m²)

Expand to show TLE details & history
Last TLE update: 2 days ago

TLE from 2 days ago
0 KUIPER-00451
1 68945U 26098AC  26206.50121434  .00001570  00000-0  25447-3 0  9991
2 68945  51.8981 253.6981 0000781  36.5387 323.5627 14.76395604 13083
Epoch: 2026-07-25T12:01Z
TLE epoch observation values (Epoch: 2026-07-25T12:01:44.918Z)
Latitude
-0.00004°
Longitude
130.04832°
Altitude
641.029 km
Speed
7.539 km/s
True Right ascension
16h 54m 47s
True Declination
0° 00' 00"
Sunlit
Object was in full shadow at epoch
Visualization orbit readout
Latitude
Unknown
Longitude
Unknown
Altitude
Unknown
Speed
Unknown
Apparent Right ascension
Unknown
Apparent Declination
Unknown
Sunlit
N/A
Visualization observer readout
Local Sidereal Time
21:03:56
Azimuth
Unknown
Elevation
Unknown
Doppler factor
Unknown
Orbital elements
Apogee altitude
641.724 km
Perigee altitude
640.627 km
Semi-major axis
7,019.312 km
Eccentricity
0.00008
Inclination
51.8981°
RAAN
253.6981°
Arg. of periapsis
36.5387°
True anomaly
323.55738°
Mean anomaly
323.5627°
Eccentric anomaly
323.56004°
Mean motion
3.69064 °/min
Orbital period
97.54 mins
BSTAR
0.00025447
Loading maneuver chart data...
Computing Atmospheric mass density...
Loading historical data...
Loading historical data...
Loading historical data...
Loading historical data...
Loading historical data...
Loading historical data...
Loading historical data...

Documentation

Showing up to 5 results
|